Flag for USA

Past Weather in Chicago, Illinois, USA — Yesterday and Last 2 Weeks

Currently: 24 °F. Passing clouds. (Weather station: Chicago Midway Airport, USA). See more current weather

Past Weather in Chicago — Graph

°F

Chicago Temperature Yesterday

Maximum temperature yesterday: 33 °F (at 2:22 pm)
Minimum temperature yesterday: 26 °F (at 10:53 pm)
Average temperature yesterday: 31 °F

High & Low Weather Summary for the Past Weeks

 TemperatureHumidityPressure
High42 °F (Jan 21, 12:53 pm)89% (Jan 15, 10:53 pm)30.45 "Hg (Jan 15, 10:53 pm)
Low12 °F (Jan 23, 3:53 am)36% (Jan 22, 3:53 pm)29.43 "Hg (Jan 15, 6:27 am)
Average30 °F72%29.92 "Hg
* Reported Jan 12 3:24 am — Jan 27 3:53 am, Chicago. Weather by CustomWeather, © 2021

Note: Actual official high and low records may vary slightly from our data, if they occured in-between our weather recording intervals... More about our weather records

Chicago Weather History for the Previous 24 Hours

Scroll right to see more
 ConditionsComfort  
Time TempWeatherWind HumidityBarometerVisibility
3:53 am
Wed, Jan 27
25 °FOvercast.12 mph69%30.31 "Hg10 mi
2:53 am26 °FOvercast.12 mph66%30.32 "Hg10 mi
2:29 am26 °FOvercast.12 mph66%30.28 "Hg10 mi
1:53 am26 °FOvercast.14 mph66%30.32 "Hg10 mi
12:53 am26 °FOvercast.10 mph66%30.28 "Hg10 mi
11:53 pm
Tue, Jan 26
26 °FMostly cloudy.14 mph66%30.26 "Hg10 mi
11:04 pm26 °FOvercast.13 mph69%30.19 "Hg10 mi
10:53 pm26 °FOvercast.17 mph69%30.22 "Hg10 mi
9:53 pm27 °FOvercast.15 mph69%30.20 "Hg10 mi
8:53 pm27 °FOvercast.20 mph72%30.19 "Hg10 mi
7:53 pm29 °FOvercast.20 mph75%30.16 "Hg10 mi
7:27 pm30 °FLight snow. Mostly cloudy.14 mph72%30.11 "Hg10 mi
6:53 pm30 °FMostly cloudy.13 mph75%30.14 "Hg10 mi
5:53 pm31 °FLight snow. Mostly cloudy.17 mph76%30.10 "Hg9 mi
5:02 pm31 °FLight snow. Ice fog.17 mph82%30.04 "Hg5 mi
4:53 pm31 °FLight snow. Ice fog.13 mph82%30.07 "Hg1 mi
4:43 pm31 °FLight snow. Ice fog.13 mph82%30.03 "Hg1 mi
3:53 pm32 °FLight snow. Ice fog.9 mph85%30.03 "Hg1 mi
3:28 pm32 °FSnow. Ice fog.15 mph82%29.97 "Hg1 mi
2:53 pm32 °FLight snow. Ice fog.13 mph82%29.98 "Hg3 mi
2:32 pm32 °FLight snow. Ice fog.14 mph82%29.93 "Hg1 mi
2:22 pm33 °FLight snow. Fog.13 mph78%29.92 "Hg5 mi
1:53 pm32 °FLight snow. Ice fog.14 mph82%29.94 "Hg4 mi
1:35 pm32 °FLight snow. Ice fog.13 mph82%29.89 "Hg2 mi
1:07 pm32 °FLight snow. Ice fog.12 mph82%29.88 "Hg2 mi
1:00 pm32 °FLight snow. Ice fog.13 mph79%29.88 "Hg2 mi
11:53 am32 °FLight snow. Mostly cloudy.15 mph79%29.90 "Hg8 mi
11:29 am32 °FLight snow. Ice fog.13 mph82%29.85 "Hg3 mi
10:53 am32 °FLight snow. Ice fog.18 mph82%29.87 "Hg4 mi
10:20 am31 °FLight snow. Ice fog.10 mph85%29.83 "Hg4 mi
9:53 am32 °FLight snow. Ice fog.16 mph79%29.84 "Hg5 mi
9:23 am31 °FLight snow. Ice fog.18 mph82%29.79 "Hg3 mi
8:53 am31 °FLight snow. Ice fog.16 mph82%29.80 "Hg3 mi
7:53 am31 °FLight snow. Overcast.17 mph82%29.78 "Hg7 mi
7:15 am31 °FLight snow. Ice fog.20 mph82%29.72 "Hg6 mi
6:53 am31 °FLight snow. Ice fog.18 mph82%29.75 "Hg6 mi
6:18 am31 °FLight snow. Ice fog.17 mph82%29.73 "Hg4 mi
5:53 am31 °FLight snow. Ice fog.18 mph85%29.75 "Hg3 mi
5:16 am31 °FLight snow. Ice fog.20 mph85%29.71 "Hg4 mi
Weather by CustomWeather, © 2021

See weather overview